CST,Max TemperatureF,Mean TemperatureF,Min TemperatureF,Max Dew PointF,MeanDew PointF,Min DewpointF,Max Humidity, Mean Humidity, Min Humidity, Max Sea Level PressureIn, Mean Sea Level PressureIn, Min Sea Level PressureIn, Max VisibilityMiles, Mean VisibilityMiles, Min VisibilityMiles, Max Wind SpeedMPH, Mean Wind SpeedMPH, Max Gust SpeedMPH,PrecipitationIn, CloudCover, Events, WindDirDegrees
2013-1-1,73,65,57,66,58,51,94,85,72,30.15,30.03,29.91,10,8,0,23,9,30,0.04,7,Fog-Rain,332
2013-1-2,57,50,44,52,45,41,93,89,82,30.27,30.21,30.12,9,6,5,20,16,,0.33,8,Rain,331
2013-1-3,50,47,44,45,42,39,93,84,66,30.34,30.29,30.25,10,6,2,22,16,29,0.02,8,Rain,333
2013-1-4,48,47,46,47,43,37,93,84,64,30.38,30.31,30.27,10,5,2,23,17,30,0.05,8,Rain,325
2013-1-5,52,49,46,47,43,39,93,80,71,30.33,30.27,30.22,10,8,3,22,19,30,0.00,8,Rain,335
2013-1-6,63,57,50,48,45,40,86,71,43,30.34,30.27,30.24,10,9,8,20,12,26,0.00,6,Rain,340
2013-1-7,69,58,46,61,53,43,90,79,53,30.29,30.13,29.99,10,8,6,10,6,,0.00,5,,6
2013-1-8,73,68,64,70,66,61,94,89,73,29.96,29.88,29.73,9,7,2,18,8,28,0.16,6,Rain-Thunderstorm,159
2013-1-9,69,63,57,68,61,53,94,90,81,30.08,29.93,29.77,10,7,1,20,8,24,0.55,8,Rain-Thunderstorm,311
2013-1-10,66,60,55,58,56,53,93,83,66,30.11,30.06,30.03,10,9,7,10,5,,0.00,2,,19
2013-1-11,81,68,55,70,62,55,100,91,62,30.06,29.94,29.81,9,4,0,18,6,25,0.00,3,Fog,155
2013-1-12,81,77,73,72,71,70,94,85,69,29.84,29.76,29.67,8,6,5,29,18,41,0.00,6,,170
2013-1-13,75,64,53,70,51,39,89,69,49,30.07,29.94,29.70,10,8,6,25,13,33,0.00,8,Rain,331
2013-1-14,55,52,48,47,45,41,93,81,68,30.16,30.08,30.03,10,8,3,21,14,28,0.00,8,Rain,343
2013-1-15,51,48,45,48,44,37,97,87,73,30.19,30.07,30.00,10,7,2,18,15,28,0.01,8,Rain,339
2013-1-16,60,52,42,37,29,19,74,52,21,30.39,30.31,30.23,10,10,9,26,15,31,0.00,3,,313
2013-1-17,66,52,37,45,36,28,86,57,30,30.46,30.41,30.35,10,10,8,15,8,18,0.00,0,,347
2013-1-18,68,56,45,51,46,41,86,71,42,30.48,30.40,30.31,10,10,9,10,7,17,0.00,0,,31
2013-1-19,71,61,51,55,51,46,92,72,47,30.30,30.23,30.15,10,10,8,16,6,,0.00,0,,92
2013-1-20,73,64,54,58,54,51,90,74,49,30.24,30.17,30.11,10,10,2,13,6,,0.00,0,,98
2013-1-21,73,65,57,59,57,55,90,78,55,30.22,30.15,30.09,10,10,8,14,6,,0.00,0,,77
2013-1-22,75,66,57,59,57,53,93,76,48,30.27,30.21,30.16,10,9,8,15,7,,0.00,0,,70
2013-1-23,78,68,59,64,61,56,94,79,57,30.32,30.26,30.22,10,7,1,17,7,22,0.00,3,,102
2013-1-24,81,72,62,64,62,59,90,77,54,30.28,30.22,30.16,10,9,7,22,9,28,0.00,0,,161
2013-1-25,82,72,61,65,62,58,90,76,52,30.18,30.11,30.04,10,9,7,23,10,31,0.00,1,,162
2013-1-26,81,72,64,65,62,57,87,73,44,30.14,30.09,30.03,10,9,8,18,11,29,0.00,0,,148
2013-1-27,81,75,69,70,67,65,90,79,60,30.08,30.02,29.96,9,8,7,25,14,33,0.00,5,,150
2013-1-28,82,77,72,70,69,66,88,78,58,30.05,29.98,29.91,8,7,6,28,18,34,0.00,6,,153
2013-1-29,84,78,73,70,69,67,88,80,55,29.91,29.77,29.66,8,7,6,32,20,47,0.00,4,,176
2013-1-30,75,65,48,70,33,13,85,35,10,30.26,30.01,29.67,10,9,7,32,18,40,0.00,2,,340
2013-1-31,71,58,46,49,38,28,75,48,33,30.33,30.27,30.23,10,10,9,14,6,,0.00,0,,128